Torna al catalogo

FENGYUN 1C DEB

AttivoSSO
NORAD 30506·DEBRIS·🇨🇳 China

Lanciato May 10, 1999 da Taiyuan Satellite Launch Center

Loading…

Prossimi Passaggi (prossime 24 ore)

TLE

AggiornatoSource: Space-Track

Epoca: Sep 14, 2026, 19:06 UTC

1 30506U 99025AHU 26257.79596870  .00000163  00000-0  11660-3 0  9999
2 30506  98.7613 260.0702 0069134 287.9342 249.1162 14.08908124  7093

Traccia FENGYUN 1C DEB in tempo reale con AllMySat

Download on the App Store